| time (UTC) | temp C | wind direction | speed KPH | gust KPH | rain 1hr cm | rain 24hr cm | rain mn cm | humidity % | barometer mb |
| 20260504141045 | 11 | 240 | 3.2 | 8.0 | 0.00 | 0.00 | 0.00 | 56 | 1004.9 |
| 20260504140546 | 11 | 248 | 3.2 | 17.7 | 0.00 | 0.00 | 0.00 | 60 | 1004.9 |
| 20260504130547 | 10 | 255 | 3.2 | 12.9 | 0.00 | 0.00 | 0.00 | 60 | 1005.1 |
| 20260504120119 | 8 | 201 | 1.6 | 9.7 | 0.00 | 0.00 | 0.00 | 69 | 1005.5 |
| 20260504110542 | 6 | 203 | 0.0 | 3.2 | 0.00 | 0.00 | 0.00 | 84 | 1005.7 |
| 20260504100545 | 5 | 193 | 0.0 | 3.2 | 0.00 | 0.00 | 0.00 | 87 | 1006.0 |
| 20260504081554 | 5 | 247 | 0.0 | 4.8 | 0.00 | 0.00 | 0.00 | 85 | 1005.7 |
| 20260504081050 | 5 | 69 | 1.6 | 4.8 | 0.00 | 0.00 | 0.00 | 86 | 1005.8 |
| 20260504080545 | 5 | 178 | 1.6 | 3.2 | 0.00 | 0.00 | 0.00 | 86 | 1005.9 |
| 20260504050547 | 5 | 178 | 0.0 | 8.0 | 0.00 | 0.00 | 0.00 | 60 | 1006.3 |
| 20260504045550 | 5 | 178 | 1.6 | 8.0 | 0.00 | 0.00 | 0.00 | 58 | 1006.5 |
| 20260504045047 | 5 | 158 | 3.2 | 6.4 | 0.00 | 0.00 | 0.00 | 57 | 1006.5 |
| 20260504044551 | 5 | 0 | 0.0 | 6.4 | 0.00 | 0.00 | 0.00 | 57 | 1006.4 |
| 20260504044047 | 5 | 266 | 0.0 | 11.3 | 0.00 | 0.00 | 0.00 | 57 | 1006.6 |
| 20260504043547 | 5 | 193 | 1.6 | 11.3 | 0.00 | 0.00 | 0.00 | 58 | 1006.5 |
| 20260504043110 | 5 | 193 | 0.0 | 4.8 | 0.00 | 0.00 | 0.00 | 58 | 1006.6 |
| 20260504042546 | 4 | 193 | 0.0 | 4.8 | 0.00 | 0.00 | 0.00 | 59 | 1006.6 |
| 20260504042048 | 4 | 178 | 0.0 | 8.0 | 0.00 | 0.00 | 0.00 | 59 | 1006.7 |
| 20260504041548 | 4 | 146 | 0.0 | 8.0 | 0.00 | 0.00 | 0.00 | 59 | 1006.7 |
| 20260504041045 | 3 | 0 | 1.6 | 8.0 | 0.00 | 0.00 | 0.00 | 57 | 1006.6 |
| 20260504040548 | 3 | 142 | 0.0 | 3.2 | 0.00 | 0.00 | 0.00 | 58 | 1006.6 |
| 20260504040058 | 3 | 0 | 0.0 | 3.2 | 0.00 | 0.00 | 0.00 | 63 | 1006.6 |
| 20260504035544 | 3 | 0 | 0.0 | 3.2 | 0.00 | 0.00 | 0.00 | 59 | 1006.7 |
| 20260504035047 | 3 | 94 | 0.0 | 3.2 | 0.00 | 0.00 | 0.00 | 59 | 1006.6 |
| 20260504034554 | 3 | 119 | 0.0 | 1.6 | 0.00 | 0.00 | 0.00 | 61 | 1006.6 |
| 20260504034049 | 3 | 0 | 0.0 | 1.6 | 0.00 | 0.00 | 0.00 | 62 | 1006.7 |
| 20260504033547 | 3 | 72 | 1.6 | 3.2 | 0.00 | 0.00 | 0.00 | 56 | 1006.6 |
| 20260504033128 | 3 | 72 | 0.0 | 3.2 | 0.00 | 0.00 | 0.00 | 59 | 1006.6 |
| 20260504032547 | 3 | 0 | 0.0 | 3.2 | 0.00 | 0.00 | 0.00 | 59 | 1006.6 |
| 20260504032047 | 3 | 72 | 1.6 | 1.6 | 0.00 | 0.00 | 0.00 | 63 | 1006.6 |
| 20260504031558 | 3 | 72 | 0.0 | 3.2 | 0.00 | 0.00 | 0.00 | 59 | 1006.5 |
| 20260504031050 | 3 | 72 | 1.6 | 3.2 | 0.00 | 0.00 | 0.00 | 59 | 1006.6 |
| 20260504030546 | 3 | 72 | 0.0 | 3.2 | 0.00 | 0.00 | 0.00 | 58 | 1006.6 |
| 20260504030115 | 3 | 72 | 1.6 | 3.2 | 0.00 | 0.00 | 0.00 | 58 | 1006.7 |
| 20260504025547 | 3 | 72 | 0.0 | 3.2 | 0.00 | 0.00 | 0.00 | 53 | 1006.7 |
| 20260504025047 | 3 | 73 | 1.6 | 3.2 | 0.00 | 0.00 | 0.00 | 59 | 1006.8 |
| 20260504024556 | 3 | 75 | 0.0 | 3.2 | 0.00 | 0.00 | 0.00 | 57 | 1006.8 |
| 20260504024046 | 3 | 75 | 1.6 | 3.2 | 0.00 | 0.00 | 0.00 | 58 | 1006.9 |
| 20260504023546 | 3 | 0 | 1.6 | 3.2 | 0.00 | 0.00 | 0.00 | 58 | 1006.8 |
| 20260504023057 | 3 | 0 | 0.0 | 3.2 | 0.00 | 0.00 | 0.00 | 58 | 1006.8 |
| 20260504022547 | 3 | 82 | 1.6 | 3.2 | 0.00 | 0.00 | 0.00 | 57 | 1006.9 |
| 20260504022050 | 3 | 82 | 0.0 | 3.2 | 0.00 | 0.00 | 0.00 | 60 | 1007.0 |
| 20260504021552 | 3 | 82 | 0.0 | 3.2 | 0.00 | 0.00 | 0.00 | 58 | 1006.8 |
| 20260504021048 | 3 | 82 | 1.6 | 3.2 | 0.00 | 0.00 | 0.00 | 60 | 1006.9 |
| 20260504020547 | 3 | 63 | 0.0 | 3.2 | 0.00 | 0.00 | 0.00 | 60 | 1006.9 |
| 20260504020057 | 2 | 0 | 0.0 | 4.8 | 0.00 | 0.00 | 0.00 | 60 | 1006.9 |
| 20260504015544 | 3 | 70 | 0.0 | 6.4 | 0.00 | 0.00 | 0.00 | 60 | 1006.9 |
| 20260504015044 | 3 | 300 | 0.0 | 6.4 | 0.00 | 0.00 | 0.00 | 59 | 1007.0 |
| 20260504014554 | 3 | 231 | 0.0 | 6.4 | 0.00 | 0.00 | 0.00 | 57 | 1007.0 |
| 20260504014043 | 3 | 178 | 0.0 | 4.8 | 0.00 | 0.00 | 0.00 | 60 | 1007.0 |
| 20260504013549 | 3 | 178 | 0.0 | 1.6 | 0.00 | 0.00 | 0.00 | 60 | 1007.0 |
| 20260504013053 | 3 | 86 | 0.0 | 3.2 | 0.00 | 0.00 | 0.00 | 62 | 1006.9 |
| 20260504012544 | 3 | 84 | 0.0 | 3.2 | 0.00 | 0.00 | 0.00 | 62 | 1007.0 |
| 20260504012044 | 3 | 286 | 0.0 | 3.2 | 0.00 | 0.00 | 0.00 | 62 | 1006.9 |
| 20260504011553 | 2 | 0 | 0.0 | 1.6 | 0.00 | 0.00 | 0.00 | 64 | 1006.7 |
| 20260504011046 | 2 | 0 | 0.0 | 1.6 | 0.00 | 0.00 | 0.00 | 62 | 1006.8 |
| 20260504010546 | 2 | 193 | 0.0 | 1.6 | 0.00 | 0.00 | 0.00 | 65 | 1006.7 |
| 20260504010059 | 2 | 0 | 0.0 | 1.6 | 0.00 | 0.00 | 0.00 | 65 | 1006.7 |
| 20260504005547 | 2 | 0 | 0.0 | 1.6 | 0.00 | 0.00 | 0.00 | 65 | 1006.6 |
| 20260504005104 | 2 | 0 | 0.0 | 1.6 | 0.00 | 0.00 | 0.00 | 65 | 1006.6 |
| 20260504004548 | 2 | 0 | 0.0 | 1.6 | 0.00 | 0.00 | 0.00 | 65 | 1006.5 |
| 20260504004046 | 2 | 2 | 0.0 | 1.6 | 0.00 | 0.00 | 0.00 | 64 | 1006.4 |
| 20260504003545 | 2 | 72 | 0.0 | 1.6 | 0.00 | 0.00 | 0.00 | 65 | 1006.3 |
| 20260504003047 | 2 | 65 | 0.0 | 3.2 | 0.00 | 0.00 | 0.00 | 65 | 1006.4 |
| 20260504002546 | 3 | 0 | 0.0 | 3.2 | 0.00 | 0.00 | 0.00 | 66 | 1006.4 |
| 20260504002048 | 3 | 65 | 0.0 | 1.6 | 0.00 | 0.00 | 0.00 | 65 | 1006.3 |
| 20260504001556 | 3 | 65 | 0.0 | 1.6 | 0.00 | 0.00 | 0.00 | 63 | 1006.3 |
| 20260504001048 | 3 | 0 | 0.0 | 1.6 | 0.00 | 0.00 | 0.00 | 62 | 1006.2 |
| 20260504000547 | 3 | 0 | 0.0 | 1.6 | 0.00 | 0.00 | 0.00 | 61 | 1006.2 |
| 20260504000058 | 3 | 77 | 0.0 | 1.6 | 0.00 | 0.00 | 0.00 | 63 | 1006.2 |
| 20260503235546 | 4 | 0 | 0.0 | 1.6 | 0.00 | 0.00 | 0.00 | 61 | 1006.2 |
| 20260503235046 | 5 | 286 | 0.0 | 1.6 | 0.00 | 0.00 | 0.00 | 59 | 1006.1 |
| 20260503234550 | 5 | 0 | 0.0 | 1.6 | 0.00 | 0.00 | 0.00 | 61 | 1006.2 |
| 20260503234046 | 5 | 0 | 0.0 | 3.2 | 0.00 | 0.00 | 0.00 | 57 | 1006.1 |
| 20260503233546 | 5 | 0 | 1.6 | 3.2 | 0.00 | 0.00 | 0.00 | 54 | 1006.0 |
| 20260503233052 | 6 | 218 | 0.0 | 3.2 | 0.00 | 0.00 | 0.00 | 57 | 1006.1 |
| 20260503232548 | 6 | 299 | 0.0 | 4.8 | 0.00 | 0.00 | 0.00 | 55 | 1006.1 |
| 20260503232045 | 6 | 276 | 1.6 | 6.4 | 0.00 | 0.00 | 0.00 | 56 | 1006.1 |
| 20260503231552 | 6 | 273 | 0.0 | 6.4 | 0.00 | 0.00 | 0.00 | 55 | 1006.0 |
| 20260503231045 | 6 | 290 | 1.6 | 4.8 | 0.00 | 0.00 | 0.00 | 56 | 1005.9 |
| 20260503230545 | 6 | 273 | 1.6 | 4.8 | 0.00 | 0.00 | 0.00 | 56 | 1006.1 |
| 20260503230110 | 6 | 285 | 1.6 | 4.8 | 0.00 | 0.00 | 0.00 | 54 | 1005.9 |
| 20260503225546 | 6 | 178 | 1.6 | 6.4 | 0.00 | 0.03 | 0.00 | 53 | 1005.9 |
| 20260503225047 | 6 | 178 | 1.6 | 8.0 | 0.00 | 0.03 | 0.00 | 53 | 1006.0 |
| 20260503224552 | 6 | 274 | 1.6 | 8.0 | 0.00 | 0.03 | 0.00 | 53 | 1006.1 |
| 20260503224045 | 6 | 283 | 1.6 | 8.0 | 0.00 | 0.03 | 0.00 | 51 | 1005.9 |
| 20260503223547 | 6 | 339 | 3.2 | 6.4 | 0.00 | 0.03 | 0.00 | 53 | 1005.9 |
| 20260503223111 | 6 | 287 | 1.6 | 6.4 | 0.00 | 0.03 | 0.00 | 53 | 1005.9 |
| 20260503222546 | 6 | 271 | 3.2 | 6.4 | 0.00 | 0.03 | 0.00 | 51 | 1005.9 |
| 20260503222045 | 6 | 276 | 3.2 | 6.4 | 0.00 | 0.03 | 0.00 | 51 | 1006.0 |
| 20260503221552 | 6 | 266 | 1.6 | 8.0 | 0.00 | 0.03 | 0.00 | 52 | 1005.9 |
| 20260503221047 | 6 | 250 | 4.8 | 8.0 | 0.00 | 0.03 | 0.00 | 51 | 1005.9 |
| 20260503220546 | 6 | 259 | 3.2 | 8.0 | 0.00 | 0.03 | 0.00 | 52 | 1005.8 |
| 20260503220057 | 6 | 193 | 3.2 | 6.4 | 0.00 | 0.03 | 0.00 | 53 | 1005.8 |
| 20260503215546 | 6 | 269 | 1.6 | 4.8 | 0.00 | 0.10 | 0.00 | 56 | 1005.9 |
| 20260503215045 | 6 | 178 | 1.6 | 4.8 | 0.00 | 0.10 | 0.00 | 51 | 1005.8 |
| 20260503214558 | 6 | 178 | 3.2 | 6.4 | 0.00 | 0.10 | 0.00 | 55 | 1005.8 |
| 20260503214044 | 6 | 247 | 3.2 | 6.4 | 0.00 | 0.10 | 0.00 | 54 | 1005.7 |
| 20260503213548 | 6 | 283 | 3.2 | 9.7 | 0.00 | 0.10 | 0.00 | 52 | 1005.8 |
| 20260503213049 | 7 | 249 | 3.2 | 9.7 | 0.00 | 0.10 | 0.00 | 51 | 1005.8 |
| 20260503212545 | 7 | 240 | 3.2 | 9.7 | 0.00 | 0.10 | 0.00 | 53 | 1005.8 |
| 20260503212046 | 7 | 297 | 1.6 | 8.0 | 0.00 | 0.10 | 0.00 | 52 | 1005.8 |
| 20260503211551 | 6 | 34 | 3.2 | 8.0 | 0.00 | 0.10 | 0.00 | 52 | 1005.9 |
| 20260503211045 | 6 | 276 | 4.8 | 9.7 | 0.00 | 0.10 | 0.00 | 54 | 1005.8 |
| 20260503210544 | 6 | 268 | 4.8 | 9.7 | 0.00 | 0.10 | 0.00 | 54 | 1005.7 |
| 20260503210049 | 6 | 244 | 4.8 | 11.3 | 0.00 | 0.10 | 0.00 | 52 | 1005.7 |
| 20260503205542 | 6 | 271 | 3.2 | 11.3 | 0.00 | 0.10 | 0.00 | 53 | 1005.7 |
| 20260503205042 | 6 | 338 | 4.8 | 11.3 | 0.00 | 0.10 | 0.00 | 52 | 1005.7 |
| 20260503204550 | 6 | 245 | 3.2 | 9.7 | 0.00 | 0.10 | 0.00 | 54 | 1005.7 |
| 20260503204045 | 6 | 277 | 4.8 | 9.7 | 0.00 | 0.10 | 0.00 | 56 | 1005.7 |
| 20260503203543 | 6 | 271 | 4.8 | 9.7 | 0.00 | 0.10 | 0.00 | 53 | 1005.7 |
| 20260503203050 | 6 | 257 | 3.2 | 9.7 | 0.00 | 0.10 | 0.00 | 53 | 1005.6 |
| 20260503202550 | 6 | 177 | 3.2 | 8.0 | 0.00 | 0.10 | 0.00 | 55 | 1005.7 |
| 20260503202046 | 6 | 178 | 3.2 | 14.5 | 0.00 | 0.10 | 0.00 | 57 | 1005.8 |
| 20260503201552 | 6 | 178 | 3.2 | 14.5 | 0.00 | 0.10 | 0.00 | 54 | 1005.6 |
| 20260503201045 | 6 | 325 | 4.8 | 14.5 | 0.00 | 0.10 | 0.00 | 55 | 1005.6 |
| 20260503200544 | 6 | 38 | 3.2 | 9.7 | 0.00 | 0.10 | 0.00 | 55 | 1005.7 |
| 20260503200054 | 6 | 263 | 4.8 | 9.7 | 0.00 | 0.10 | 0.00 | 54 | 1005.6 |
| 20260503195545 | 6 | 266 | 3.2 | 12.9 | 0.00 | 0.10 | 0.00 | 57 | 1005.7 |
| 20260503195045 | 6 | 258 | 3.2 | 12.9 | 0.00 | 0.10 | 0.00 | 57 | 1005.9 |
| 20260503194606 | 6 | 178 | 6.4 | 12.9 | 0.00 | 0.10 | 0.00 | 56 | 1005.9 |
| 20260503194049 | 6 | 316 | 3.2 | 8.0 | 0.00 | 0.10 | 0.00 | 56 | 1005.9 |
| 20260503193544 | 6 | 258 | 3.2 | 11.3 | 0.00 | 0.10 | 0.00 | 57 | 1005.9 |
| 20260503193047 | 6 | 238 | 3.2 | 11.3 | 0.00 | 0.10 | 0.00 | 58 | 1006.0 |
| 20260503192545 | 6 | 267 | 3.2 | 8.0 | 0.00 | 0.10 | 0.00 | 58 | 1006.0 |
| 20260503192043 | 5 | 268 | 3.2 | 8.0 | 0.00 | 0.10 | 0.00 | 61 | 1006.1 |
| 20260503191600 | 5 | 259 | 3.2 | 8.0 | 0.00 | 0.10 | 0.00 | 59 | 1006.1 |
| 20260503191046 | 5 | 281 | 3.2 | 17.7 | 0.00 | 0.10 | 0.00 | 57 | 1006.2 |
| 20260503190546 | 5 | 294 | 3.2 | 17.7 | 0.00 | 0.10 | 0.00 | 56 | 1006.2 |
| 20260503190050 | 6 | 307 | 4.8 | 14.5 | 0.00 | 0.10 | 0.00 | 52 | 1006.1 |
| 20260503185545 | 6 | 259 | 4.8 | 9.7 | 0.00 | 0.10 | 0.00 | 51 | 1006.1 |
| 20260503185045 | 6 | 278 | 3.2 | 9.7 | 0.00 | 0.10 | 0.00 | 50 | 1006.0 |
| 20260503184551 | 7 | 297 | 3.2 | 11.3 | 0.00 | 0.10 | 0.00 | 51 | 1006.1 |
| 20260503184045 | 6 | 279 | 3.2 | 11.3 | 0.00 | 0.10 | 0.00 | 51 | 1005.9 |
| 20260503183544 | 6 | 248 | 4.8 | 9.7 | 0.00 | 0.10 | 0.00 | 54 | 1006.1 |
| 20260503183058 | 6 | 328 | 3.2 | 9.7 | 0.00 | 0.10 | 0.00 | 53 | 1006.0 |
| 20260503182545 | 6 | 275 | 3.2 | 8.0 | 0.00 | 0.10 | 0.00 | 54 | 1006.1 |
| 20260503182045 | 6 | 259 | 4.8 | 9.7 | 0.00 | 0.10 | 0.00 | 51 | 1006.0 |
| 20260503181605 | 6 | 305 | 3.2 | 9.7 | 0.00 | 0.10 | 0.00 | 53 | 1006.1 |
| 20260503181048 | 6 | 329 | 3.2 | 11.3 | 0.00 | 0.10 | 0.00 | 52 | 1006.1 |
| 20260503180544 | 6 | 301 | 4.8 | 12.9 | 0.00 | 0.10 | 0.00 | 55 | 1006.0 |
| 20260503180054 | 6 | 264 | 3.2 | 12.9 | 0.00 | 0.10 | 0.00 | 52 | 1005.9 |
| 20260503175544 | 6 | 290 | 4.8 | 12.9 | 0.00 | 0.10 | 0.00 | 52 | 1005.9 |
| 20260503175043 | 6 | 289 | 3.2 | 11.3 | 0.00 | 0.10 | 0.00 | 48 | 1005.8 |
| 20260503174604 | 6 | 309 | 4.8 | 11.3 | 0.00 | 0.10 | 0.00 | 49 | 1006.0 |
| 20260503174045 | 6 | 178 | 6.4 | 11.3 | 0.00 | 0.10 | 0.00 | 51 | 1006.0 |
| 20260503173544 | 6 | 156 | 4.8 | 11.3 | 0.00 | 0.10 | 0.00 | 49 | 1006.1 |
| 20260503173052 | 6 | 288 | 4.8 | 11.3 | 0.00 | 0.10 | 0.00 | 53 | 1006.0 |
| 20260503172546 | 6 | 243 | 6.4 | 11.3 | 0.00 | 0.10 | 0.00 | 52 | 1006.0 |
| 20260503172045 | 6 | 257 | 4.8 | 11.3 | 0.00 | 0.10 | 0.00 | 51 | 1005.9 |
| 20260503171548 | 6 | 255 | 4.8 | 12.9 | 0.00 | 0.10 | 0.00 | 51 | 1005.9 |
| 20260503171044 | 6 | 280 | 4.8 | 12.9 | 0.00 | 0.10 | 0.00 | 53 | 1006.1 |
| 20260503170544 | 6 | 252 | 8.0 | 12.9 | 0.00 | 0.10 | 0.00 | 52 | 1005.9 |
| 20260503170105 | 6 | 148 | 4.8 | 12.9 | 0.00 | 0.10 | 0.00 | 48 | 1006.1 |
| 20260503150545 | 6 | 178 | 6.4 | 17.7 | 0.00 | 0.10 | 0.00 | 55 | 1006.6 |